TimeEDT,TemperatureF,Dew PointF,Humidity,Sea Level PressureIn,VisibilityMPH,Wind Direction,Wind SpeedMPH,Gust SpeedMPH,PrecipitationIn,Events,Conditions,WindDirDegrees,DateUTC
12:54 AM,62.1,59.0,90,29.97,10.0,South,3.5,-,N/A,,Mostly Cloudy,170,2012-10-03 04:54:00
1:54 AM,62.1,57.9,86,29.99,10.0,Calm,Calm,-,N/A,,Partly Cloudy,0,2012-10-03 05:54:00
2:54 AM,62.1,57.9,86,30.00,10.0,Calm,Calm,-,N/A,,Clear,0,2012-10-03 06:54:00
3:54 AM,62.1,57.9,86,29.99,10.0,Calm,Calm,-,N/A,,Clear,0,2012-10-03 07:54:00
4:54 AM,60.1,57.9,93,30.01,10.0,Calm,Calm,-,N/A,,Clear,0,2012-10-03 08:54:00
5:54 AM,60.1,57.9,93,30.03,10.0,Calm,Calm,-,N/A,,Clear,0,2012-10-03 09:54:00
6:54 AM,59.0,57.0,93,30.05,10.0,Calm,Calm,-,N/A,,Clear,0,2012-10-03 10:54:00
7:54 AM,60.1,57.0,90,30.07,10.0,Calm,Calm,-,N/A,,Clear,0,2012-10-03 11:54:00
8:54 AM,61.0,57.9,90,30.09,10.0,South,3.5,-,N/A,,Clear,180,2012-10-03 12:54:00
9:54 AM,64.0,57.9,80,30.11,10.0,SE,5.8,-,N/A,,Clear,140,2012-10-03 13:54:00
10:54 AM,66.9,57.9,73,30.11,10.0,South,5.8,-,N/A,,Clear,180,2012-10-03 14:54:00
11:54 AM,69.1,57.0,65,30.11,10.0,Variable,5.8,-,N/A,,Clear,0,2012-10-03 15:54:00
12:54 PM,71.1,57.0,61,30.10,10.0,Calm,Calm,-,N/A,,Clear,0,2012-10-03 16:54:00
1:54 PM,73.0,52.0,48,30.08,10.0,Calm,Calm,-,N/A,,Clear,0,2012-10-03 17:54:00
2:54 PM,73.9,50.0,43,30.07,10.0,SSW,8.1,17.3,N/A,,Clear,200,2012-10-03 18:54:00
3:54 PM,72.0,53.1,51,30.08,10.0,South,11.5,-,N/A,,Clear,190,2012-10-03 19:54:00
4:54 PM,70.0,57.0,63,30.10,10.0,Variable,5.8,-,N/A,,Partly Cloudy,0,2012-10-03 20:54:00
5:54 PM,68.0,57.9,70,30.11,10.0,SSE,6.9,-,N/A,,Clear,160,2012-10-03 21:54:00
6:54 PM,66.0,57.9,75,30.13,10.0,SE,5.8,-,N/A,,Clear,140,2012-10-03 22:54:00
7:54 PM,64.9,57.9,78,30.14,10.0,SE,4.6,-,N/A,,Clear,140,2012-10-03 23:54:00
8:54 PM,64.9,57.9,78,30.16,10.0,SSE,8.1,-,N/A,,Clear,150,2012-10-04 00:54:00
9:54 PM,64.0,57.9,80,30.17,10.0,SSE,4.6,-,N/A,,Clear,150,2012-10-04 01:54:00
10:54 PM,63.0,57.9,84,30.19,10.0,SE,5.8,-,N/A,,Clear,140,2012-10-04 02:54:00
11:54 PM,63.0,57.9,84,30.20,10.0,SE,4.6,-,N/A,,Clear,130,2012-10-04 03:54:00